Wind_Speed
27 21 26 24 23 23 22 22 16 10 11 10 9 15 15 15 17 16 19 16 13 13 11 15 19 13 11 9 7 5 3 2 3 5 3 4 3 5 5 11 7 4 4 3 3 6 5 4 4 6 7 8 7 9
31 27 29 26 25 25 25 24 22 16 13 13 12 13 19 22 22 20 24 26 23 18 13 16 20 17 16 14 15 12 7 5 3 4 5 4 9 7 10 6 6 5 4 7 7 6 11 13 10 11 12 12 12 12
36 34 31 30 26 27 28 27 27 22 19 15 15 16 16 20 23 21 20 27 28 22 18 21 19 21 18 17 17 19 15 11 10 10 10 9 9 11 9 12 14 13 15 18 18 5 8 12 13 11 12 12 13 15
37 36 34 33 30 29 31 30 29 29 23 20 16 17 18 18 21 23 21 23 27 26 25 20 19 23 23 21 20 20 21 18 15 15 16 18 17 16 17 20 27 23 21 18 20 18 19 16 14 13 10 11 12 13
40 38 39 37 35 33 32 33 32 31 29 24 19 19 20 18 20 24 23 23 25 24 20 20 28 26 23 28 26 25 23 24 23 23 22 23 24 23 27 28 26 14 14 19 22 15 15 13 13 11 10 11 11 11
50 41 42 42 37 39 36 35 35 33 32 28 23 22 21 21 22 24 27 25 26 25 28 33 31 26 27 29 29 30 28 27 28 28 27 28 27 25 21 32 31 22 20 22 22 20 16 15 15 12 12 12 11 11
50 51 44 43 43 40 42 39 36 34 33 31 27 25 23 24 24 25 22 23 23 24 27 27 30 33 34 28 29 30 31 31 30 31 34 33 32 32 40 44 30 29 26 23 20 20 19 15 14 14 13 12 11 11
48 51 50 46 45 40 43 41 38 35 34 33 30 28 27 27 26 26 26 25 22 18 24 18 18 22 21 17 23 29 30 32 36 35 38 38 37 39 49 41 31 26 17 19 18 18 17 19 17 15 14 13 12 11
51 52 55 50 46 43 43 44 43 39 37 36 33 33 31 30 26 23 24 25 20 28 24 25 33 25 24 28 24 20 25 32 35 40 41 42 46 51 47 34 34 29 27 25 19 18 18 20 19 17 14 13 12 12
54 51 53 49 49 47 46 48 45 45 42 39 37 39 37 29 23 22 25 29 32 35 40 44 38 31 26 17 17 16 17 20 23 30 33 46 61 54 48 40 33 30 30 29 28 20 18 20 18 17 15 13 13 12
55 54 54 51 51 52 51 49 50 51 46 46 43 41 32 22 23 24 20 23 25 27 38 53 48 38 34 30 25 17 10 9 13 20 28 35 46 43 31 30 25 22 25 27 28 25 22 20 21 18 15 13 13 12
51 53 51 51 52 53 55 55 54 57 56 53 44 40 33 25 16 15 18 19 24 29 29 22 29 33 41 38 28 20 21 12 13 17 18 27 29 13 11 5 8 16 24 26 29 30 24 21 19 17 15 14 13 13
48 49 50 51 54 55 57 57 56 57 55 49 40 33 20 17 19 20 29 26 28 28 22 22 22 21 33 40 29 19 14 19 23 22 37 42 32 37 32 30 30 24 18 21 27 30 27 24 21 18 16 14 14 14
49 52 51 53 54 52 54 52 56 56 53 50 39 28 23 17 21 50 47 42 39 30 27 20 17 23 33 29 23 14 21 21 18 31 45 29 27 27 29 25 24 23 25 23 25 28 26 23 22 20 17 15 15 15
54 52 50 50 51 52 53 56 56 56 54 41 32 19 35 43 40 22 21 32 26 25 24 20 21 28 28 21 19 17 12 15 21 40 35 24 12 17 23 26 27 26 21 20 23 27 26 24 22 20 17 16 16 16
52 50 47 48 49 50 53 53 57 56 57 34 37 38 46 38 39 38 30 18 15 18 20 20 26 22 24 26 21 27 25 34 36 27 16 18 27 34 23 22 19 24 23 22 24 26 25 23 20 19 18 17 16 16
46 46 48 48 49 50 49 58 56 52 43 39 51 57 50 36 27 30 31 27 22 27 33 25 25 21 16 31 49 45 52 42 31 22 11 12 15 11 21 28 25 21 24 25 26 27 25 22 20 18 17 17 16 16
47 47 48 47 47 49 57 62 57 38 41 49 54 47 42 47 44 33 25 28 31 33 33 37 36 33 43 41 40 45 50 50 44 37 40 40 39 41 38 34 30 21 20 24 26 26 23 21 19 18 17 17 16 16
45 45 49 50 54 60 61 58 58 31 47 52 48 45 42 43 39 36 34 31 30 32 36 40 41 46 46 49 45 45 45 45 43 43 43 44 35 34 35 34 32 28 24 26 27 23 22 21 19 18 17 16 16 16
40 43 46 49 55 58 43 25 56 43 32 40 42 46 45 42 37 39 41 35 36 40 49 55 55 48 42 40 39 43 47 34 32 37 42 40 25 23 25 26 26 25 27 29 28 26 22 19 18 17 16 17 17 16
35 35 35 44 53 53 34 26 35 44 49 35 34 38 41 43 43 42 41 43 47 50 52 51 47 46 50 45 43 42 24 32 48 43 38 34 31 31 27 26 28 28 29 27 23 21 20 18 16 16 16 16 16 15
40 42 51 49 55 39 29 29 36 35 40 45 34 28 29 32 34 38 41 47 51 52 50 48 49 48 47 46 47 47 45 30 25 37 48 39 26 21 22 25 25 30 28 24 22 21 19 17 16 16 15 14 14 14
47 51 53 50 36 32 23 30 29 33 28 32 37 36 35 30 30 32 39 44 44 41 41 41 45 44 44 40 40 45 46 37 24 25 26 27 32 33 26 23 25 29 26 23 22 19 16 15 15 15 13 13 14 16
48 51 42 34 25 26 27 28 30 27 29 28 32 34 26 32 32 33 40 46 45 39 37 39 43 47 46 49 46 42 48 46 24 25 28 26 20 24 24 24 27 25 24 22 19 17 15 14 14 13 12 14 15 17
35 28 17 18 26 26 26 31 31 32 28 27 27 29 27 28 27 36 47 48 47 46 44 41 37 40 41 42 49 44 37 39 23 20 20 24 23 25 26 26 27 26 22 18 15 13 13 14 14 13 14 14 16 20
19 11 23 21 26 30 23 30 30 30 27 24 22 28 30 27 28 30 41 30 28 29 29 25 26 33 37 40 42 43 37 38 30 21 19 21 27 25 27 27 22 18 15 16 16 15 15 16 14 13 13 16 19 20
17 9 28 26 27 24 31 31 28 27 28 27 23 16 17 15 21 31 25 25 22 17 17 19 15 18 30 31 31 33 37 37 24 21 25 28 25 26 23 20 16 20 18 17 16 14 16 15 13 12 14 16 17 17
12 10 25 33 25 25 26 32 31 27 23 22 24 24 13 13 20 22 20 24 18 16 19 25 28 26 31 27 24 32 38 35 33 32 31 28 28 29 26 25 23 19 19 16 15 17 14 13 12 13 14 15 14 15
17 13 18 32 32 26 28 29 26 22 24 23 17 21 29 29 26 24 21 19 16 11 13 18 26 30 27 20 27 36 39 34 36 36 34 34 36 32 30 25 21 20 16 17 17 14 13 12 12 12 12 12 12 14
17 20 15 25 27 30 30 26 26 30 33 27 24 23 19 17 15 14 17 19 15 13 14 12 14 18 24 29 37 37 34 30 29 27 30 30 22 22 22 22 19 18 19 17 14 13 11 11 10 10 10 10 11 14
24 22 24 18 15 24 22 23 23 27 29 28 22 21 18 15 15 20 20 18 20 22 16 11 15 21 28 39 39 34 35 36 34 33 28 29 28 26 23 21 19 19 17 15 12 10 9 9 8 8 8 9 12 14
13 23 25 23 15 15 25 20 20 27 27 20 20 23 23 21 19 17 14 15 16 14 14 11 16 25 32 36 33 36 35 32 35 34 28 27 27 25 24 21 20 17 14 12 10 8 7 7 6 6 8 10 12 13
23 13 21 20 20 18 24 24 21 17 17 19 22 21 20 21 19 16 16 15 15 16 13 14 21 29 32 35 34 30 27 25 25 24 24 24 25 22 20 19 17 14 12 10 8 6 6 5 5 6 8 10 10 11
Wind_Direction
280 279 278 285 274 270 267 274 275 264 260 260 254 229 233 236 237 240 247 243 255 254 241 210 202 207 211 214 215 233 271 343 345 4 360 353 321 328 316 317 304 295 291 254 223 236 282 231 261 237 304 312 320 314
269 279 277 269 273 263 262 264 272 267 256 252 258 251 234 237 244 253 241 243 244 245 243 234 215 220 224 228 230 228 236 275 277 309 323 318 309 296 315 307 314 289 291 283 257 262 288 293 290 290 296 305 316 315
263 269 268 261 264 262 259 258 263 267 264 249 248 260 256 235 241 247 251 242 241 242 230 238 237 236 233 240 238 241 242 253 263 272 280 290 291 295 294 298 295 300 297 279 286 282 277 274 282 279 287 300 310 315
261 266 258 256 252 259 253 256 255 262 263 262 248 249 257 257 237 244 248 239 246 245 242 237 236 238 239 241 246 244 245 250 258 265 269 274 282 292 289 294 294 295 290 290 286 283 271 269 274 271 276 289 298 310
260 258 256 251 249 250 249 251 254 256 261 262 256 251 251 257 255 240 244 250 243 243 253 251 245 241 244 245 246 249 250 252 255 259 263 271 277 283 289 285 281 291 302 292 291 297 281 269 263 267 273 284 296 306
257 255 256 252 247 246 243 243 248 251 255 259 256 252 249 249 249 247 240 239 243 244 244 254 261 258 254 243 243 246 252 251 252 256 260 264 272 275 276 280 286 291 303 300 289 277 274 259 257 263 273 282 289 297
253 254 248 255 248 247 238 240 243 247 251 255 255 251 247 247 247 243 242 243 242 243 240 253 263 257 250 257 248 245 248 255 254 254 256 261 268 271 273 276 288 300 293 284 275 266 260 262 261 257 266 277 285 290
248 253 247 249 245 250 240 235 240 244 247 251 254 250 245 241 242 245 242 244 248 247 244 241 239 240 244 247 252 247 247 253 256 257 261 265 268 268 271 279 296 297 284 271 272 267 251 243 247 252 260 272 281 287
243 248 244 243 241 241 237 229 234 237 238 241 243 242 239 238 238 244 242 236 237 235 230 239 240 247 249 243 248 262 260 256 257 257 262 267 265 259 268 283 291 288 274 280 272 266 250 241 243 245 253 264 274 281
242 238 237 239 238 237 230 227 229 231 231 233 238 239 233 238 236 230 223 221 223 229 236 245 245 237 243 247 243 248 259 251 255 263 266 264 267 273 275 283 286 272 265 260 253 254 261 250 247 245 250 259 268 274
242 237 233 232 234 235 226 226 225 225 225 225 228 233 232 225 217 218 212 214 220 231 242 241 240 240 241 243 244 248 254 268 267 267 253 263 267 282 294 286 272 255 254 252 245 234 240 232 235 241 247 255 265 273
241 235 233 230 231 231 225 224 225 222 224 226 229 233 223 208 203 200 213 212 222 230 234 230 239 242 239 238 237 251 249 253 251 255 251 262 281 300 301 249 323 270 248 246 240 232 236 241 241 241 245 252 262 270
229 231 234 235 233 230 225 224 221 221 219 215 209 204 207 206 206 208 207 202 204 216 224 237 232 217 225 230 227 234 239 243 250 250 250 258 264 275 281 282 286 286 276 256 240 228 228 232 238 242 247 253 263 271
225 227 231 234 235 228 222 217 213 214 212 208 193 187 201 207 218 227 227 235 232 230 245 239 237 214 215 211 214 225 236 243 243 245 251 263 271 283 288 285 280 283 271 254 245 228 224 228 236 242 247 254 262 270
226 227 232 233 231 225 218 211 211 214 210 200 197 207 224 229 233 241 229 235 238 233 231 217 215 216 214 205 211 214 223 223 239 250 259 274 278 279 299 275 273 273 264 249 238 227 221 225 234 243 250 256 263 272
232 230 226 226 222 214 209 209 207 210 208 201 216 222 234 233 227 230 236 229 221 214 209 208 205 203 210 209 212 213 224 240 248 253 245 239 269 280 282 299 279 263 254 247 234 224 220 226 235 244 251 257 266 274
230 217 218 214 210 206 204 201 198 192 201 211 224 231 233 235 242 245 244 234 226 213 211 199 203 209 217 222 226 227 233 243 256 251 247 275 279 252 252 299 295 267 248 239 226 221 219 226 236 246 252 260 269 276
218 220 214 205 200 197 196 194 187 192 212 219 228 228 234 241 245 241 230 224 224 226 220 223 220 223 226 232 235 243 246 251 255 258 260 274 274 281 267 270 285 270 237 229 223 218 220 228 237 245 254 263 271 278
213 209 205 202 196 188 177 187 193 205 217 225 231 236 237 240 241 242 240 234 235 237 237 236 237 233 239 244 251 254 257 259 264 269 269 272 276 273 261 263 267 266 238 221 216 217 222 229 235 245 257 268 275 280
204 205 204 202 197 188 177 194 199 206 227 229 234 236 240 245 251 252 245 240 239 240 236 235 237 243 252 259 260 260 256 252 260 264 264 262 260 272 256 252 257 256 226 212 210 216 224 231 239 252 264 272 278 282
196 197 195 193 187 188 189 196 197 213 219 230 237 236 241 245 246 247 247 247 237 240 242 247 253 257 255 258 267 254 265 268 247 252 264 260 253 255 257 248 239 242 220 213 214 221 226 234 247 259 269 275 277 279
185 178 171 176 181 185 198 204 211 216 220 225 228 234 244 246 249 248 246 238 241 250 256 257 259 257 258 262 274 266 246 256 273 259 251 253 239 246 247 238 238 222 209 208 214 221 228 240 253 264 270 271 274 282
176 170 171 174 185 195 203 207 206 215 214 222 226 228 239 241 239 240 238 243 251 258 259 262 263 265 259 269 272 254 249 251 263 260 244 239 242 237 226 220 226 209 207 210 216 223 235 247 259 265 263 268 278 286
168 168 172 182 187 191 194 189 196 196 207 213 214 216 227 233 238 239 249 262 268 267 264 264 261 263 263 264 263 254 252 254 239 246 234 226 227 214 210 211 204 198 203 210 219 229 241 253 258 254 260 274 283 289
165 175 184 177 187 182 178 179 186 194 200 207 205 210 225 236 244 251 261 274 266 266 270 269 263 262 261 253 255 251 226 210 217 224 247 212 213 205 193 191 199 203 207 215 225 238 249 251 245 252 268 277 286 298
176 177 192 188 186 194 190 184 192 199 208 213 219 227 234 242 251 262 275 290 289 279 275 261 262 257 248 251 251 226 219 214 210 207 214 201 192 200 204 199 196 195 208 224 233 238 239 237 245 258 269 283 295 302
185 175 190 187 178 182 192 202 208 209 215 218 224 241 249 242 256 264 297 308 285 262 231 235 225 233 231 241 241 228 221 216 194 194 189 185 186 186 190 191 192 206 213 222 227 223 229 239 249 261 279 291 298 303
180 150 191 196 190 194 194 200 205 213 222 227 231 234 216 230 253 283 299 302 268 250 236 224 227 236 238 245 240 217 205 208 185 188 183 193 199 187 187 203 204 205 215 210 210 220 231 239 254 275 287 294 300 308
165 176 184 189 187 190 200 207 211 205 193 203 219 231 237 252 267 274 282 282 276 267 257 242 239 235 220 201 205 203 193 187 184 190 191 189 189 196 213 207 198 209 190 202 214 222 230 247 268 281 289 297 304 310
170 174 176 190 198 205 220 222 224 224 231 242 260 261 250 250 267 280 275 274 290 280 269 263 234 210 200 190 187 176 177 187 188 192 196 191 199 221 212 200 195 181 200 209 214 223 240 259 273 283 290 299 307 313
209 206 204 199 208 217 219 218 222 226 234 236 234 227 236 247 272 287 291 288 273 276 289 251 203 194 189 190 180 173 178 179 178 181 188 206 229 204 186 172 181 199 205 208 217 234 251 264 275 284 295 304 311 316
208 202 202 199 208 224 217 220 226 226 233 244 251 253 254 260 261 261 282 291 272 264 265 245 202 189 189 186 177 186 191 194 198 209 220 224 198 175 166 181 196 199 202 212 227 241 254 267 277 287 300 310 313 314
206 207 197 201 217 240 215 208 215 237 248 240 240 239 237 233 242 263 273 277 288 258 245 218 185 187 190 183 188 193 199 209 216 205 188 174 158 162 183 190 192 197 207 220 230 243 257 265 280 294 306 308 313 322
Height
3049 3049 3049 3049 3049 3051 3050 3047 3049 3050 3051 3049 3047 3047 3047 3048 3048 3051 3050 3049 3050 3051 3051 3049 3049 3050 3051 3052 3052 3052 3053 3051 3051 3050 3050 3048 3047 3046 3044 3043 3041 3041 3039 3038 3037 3036 3032 3032 3032 3032 3031 3029 3028 3027
3039 3040 3041 3041 3041 3042 3043 3042 3041 3042 3045 3044 3043 3042 3040 3042 3044 3046 3045 3044 3044 3046 3048 3049 3048 3048 3049 3049 3051 3050 3051 3050 3050 3049 3050 3048 3047 3045 3043 3041 3040 3039 3040 3038 3036 3030 3029 3028 3027 3027 3026 3025 3024 3023
3028 3029 3030 3031 3031 3033 3034 3035 3033 3034 3036 3038 3037 3037 3037 3035 3036 3039 3040 3039 3039 3041 3043 3043 3046 3045 3046 3047 3047 3048 3048 3047 3047 3047 3047 3046 3045 3043 3040 3038 3037 3036 3035 3032 3031 3026 3025 3024 3023 3024 3023 3021 3019 3018
3016 3017 3018 3019 3019 3022 3025 3025 3026 3025 3026 3030 3030 3031 3030 3031 3029 3032 3035 3034 3036 3037 3037 3039 3037 3040 3041 3042 3043 3044 3045 3044 3044 3043 3042 3041 3041 3038 3035 3034 3031 3032 3030 3026 3023 3022 3021 3020 3020 3019 3019 3018 3016 3015
3002 3003 3006 3006 3008 3010 3012 3015 3016 3017 3017 3020 3023 3024 3024 3025 3026 3026 3027 3029 3030 3036 3031 3033 3034 3035 3035 3037 3038 3039 3039 3040 3039 3038 3037 3037 3035 3035 3030 3026 3022 3025 3024 3022 3018 3019 3017 3016 3016 3015 3015 3014 3012 3011
2988 2991 2993 2994 2995 2997 3001 3003 3005 3007 3009 3010 3013 3016 3017 3018 3017 3018 3019 3023 3023 3024 3025 3025 3027 3028 3029 3029 3030 3033 3034 3033 3033 3031 3031 3029 3030 3031 3023 3015 3016 3019 3019 3017 3014 3013 3013 3012 3011 3011 3011 3009 3008 3007
2970 2975 2977 2980 2983 2985 2988 2992 2995 2997 3000 3001 3003 3006 3009 3010 3011 3013 3015 3016 3018 3019 3018 3018 3016 3017 3021 3023 3024 3025 3027 3027 3026 3024 3021 3022 3023 3022 3013 3006 3010 3014 3011 3009 3008 3007 3007 3008 3007 3006 3006 3005 3004 3003
2951 2958 2963 2966 2968 2971 2976 2981 2986 2988 2990 2991 2994 2996 2998 2999 3003 3007 3009 3011 3014 3014 3014 3011 3005 3009 3012 3014 3017 3018 3018 3019 3017 3017 3014 3014 3013 3010 2996 2997 3005 3005 3004 3002 3002 3001 3001 3002 3002 3002 3001 3001 2999 2998
2931 2939 2946 2950 2954 2957 2962 2967 2974 2977 2979 2981 2983 2984 2985 2988 2994 3000 3003 3005 3008 3010 3005 2997 2996 3002 3004 3008 3010 3012 3012 3011 3009 3004 3008 3006 2997 2986 2987 2996 2998 3000 2998 2998 2996 2995 2995 2996 2996 2996 2997 2996 2995 2994
2915 2920 2928 2935 2939 2942 2948 2954 2959 2964 2968 2969 2971 2973 2973 2980 2987 2992 2995 2999 2999 2997 2991 2984 2991 2995 3000 3003 3005 3009 3005 3005 2998 2998 2998 2986 2971 2979 2984 2988 2988 2987 2986 2987 2988 2990 2990 2990 2991 2992 2992 2992 2991 2990
2898 2904 2909 2914 2921 2926 2932 2939 2943 2947 2954 2954 2957 2960 2968 2973 2977 2979 2983 2986 2987 2978 2971 2971 2979 2987 2994 2999 3003 3004 3000 2998 2992 2991 2988 2971 2961 2971 2978 2978 2977 2976 2977 2978 2980 2982 2982 2983 2985 2987 2987 2987 2986 2985
2880 2885 2890 2896 2903 2909 2914 2920 2927 2930 2933 2939 2948 2952 2960 2964 2967 2970 2966 2967 2962 2961 2957 2956 2966 2979 2986 2990 2996 2996 2995 2993 2984 2980 2976 2959 2966 2970 2970 2970 2969 2968 2968 2970 2972 2974 2976 2978 2980 2981 2982 2982 2982 2980
2861 2869 2875 2881 2887 2893 2897 2905 2909 2916 2922 2927 2934 2940 2948 2952 2951 2944 2939 2934 2937 2938 2944 2955 2962 2970 2975 2982 2987 2989 2985 2978 2974 2966 2955 2949 2961 2965 2967 2967 2965 2965 2964 2964 2965 2967 2969 2972 2974 2976 2976 2977 2977 2975
2843 2850 2857 2864 2868 2874 2881 2892 2895 2902 2912 2915 2918 2924 2928 2925 2917 2912 2916 2925 2934 2939 2944 2952 2956 2960 2964 2971 2976 2974 2971 2968 2960 2946 2936 2949 2955 2958 2957 2957 2958 2957 2957 2958 2960 2961 2964 2966 2969 2970 2971 2972 2972 2970
2828 2835 2841 2848 2854 2859 2869 2873 2879 2893 2897 2901 2905 2905 2901 2906 2906 2909 2915 2922 2932 2937 2940 2944 2949 2953 2956 2961 2961 2960 2956 2945 2933 2925 2936 2946 2948 2948 2948 2947 2949 2950 2951 2951 2953 2955 2958 2961 2963 2965 2966 2966 2966 2965
2813 2820 2822 2831 2837 2847 2857 2866 2871 2879 2884 2888 2887 2888 2888 2893 2898 2904 2911 2920 2925 2933 2936 2938 2939 2943 2943 2943 2940 2934 2932 2923 2924 2929 2934 2939 2941 2942 2943 2942 2940 2942 2944 2945 2947 2950 2952 2955 2958 2960 2960 2961 2961 2960
2793 2796 2806 2818 2828 2836 2847 2854 2859 2868 2872 2870 2867 2872 2878 2885 2895 2901 2907 2914 2917 2924 2922 2924 2923 2926 2926 2921 2916 2915 2910 2920 2928 2932 2932 2933 2934 2935 2936 2936 2936 2935 2937 2939 2941 2944 2947 2950 2953 2955 2955 2956 2955 2954
2778 2787 2799 2808 2817 2830 2835 2842 2849 2855 2854 2854 2856 2864 2871 2880 2886 2894 2899 2905 2908 2912 2914 2911 2913 2908 2904 2900 2902 2909 2914 2919 2921 2924 2929 2929 2928 2928 2930 2931 2931 2930 2930 2933 2936 2939 2942 2945 2948 2949 2949 2949 2949 2948
2769 2779 2789 2797 2803 2814 2827 2833 2837 2840 2841 2844 2851 2861 2867 2872 2876 2885 2891 2897 2900 2904 2905 2902 2899 2890 2892 2897 2903 2908 2911 2913 2915 2917 2917 2917 2917 2917 2919 2922 2924 2924 2924 2927 2931 2935 2937 2940 2941 2943 2943 2943 2943 2942
2766 2774 2782 2790 2800 2809 2819 2824 2829 2832 2834 2839 2845 2852 2859 2864 2871 2875 2880 2885 2888 2889 2885 2881 2880 2884 2890 2894 2897 2899 2903 2904 2905 2905 2904 2906 2908 2908 2909 2912 2915 2916 2918 2921 2925 2928 2932 2934 2936 2938 2938 2938 2937 2937
2763 2772 2781 2786 2794 2803 2809 2812 2819 2822 2829 2832 2838 2847 2850 2854 2859 2862 2867 2872 2872 2867 2867 2870 2874 2877 2880 2883 2887 2892 2889 2890 2892 2895 2894 2896 2899 2900 2901 2903 2906 2909 2912 2917 2922 2925 2927 2929 2931 2932 2932 2932 2931 2931
2757 2766 2773 2784 2792 2797 2803 2805 2812 2816 2824 2825 2835 2840 2841 2845 2848 2852 2855 2854 2851 2853 2854 2858 2861 2865 2869 2872 2873 2873 2879 2880 2881 2882 2883 2887 2889 2891 2893 2894 2898 2902 2908 2913 2917 2920 2922 2924 2925 2926 2926 2926 2926 2926
2753 2765 2772 2778 2788 2793 2798 2802 2807 2811 2816 2822 2829 2833 2834 2837 2839 2842 2842 2840 2839 2842 2844 2848 2851 2854 2856 2858 2859 2862 2866 2869 2871 2874 2875 2876 2879 2883 2886 2888 2894 2899 2904 2908 2912 2915 2918 2919 2920 2921 2921 2921 2921 2920
2755 2763 2770 2774 2778 2785 2791 2794 2799 2804 2809 2815 2820 2825 2826 2829 2831 2831 2827 2826 2827 2832 2834 2836 2839 2841 2843 2844 2846 2850 2855 2859 2863 2865 2866 2868 2872 2876 2880 2885 2890 2896 2900 2904 2907 2910 2912 2914 2915 2916 2916 2916 2915 2914
2755 2763 2765 2766 2769 2776 2781 2786 2792 2798 2804 2810 2815 2818 2820 2823 2823 2820 2813 2812 2816 2818 2820 2822 2824 2825 2827 2830 2834 2837 2841 2847 2854 2857 2858 2860 2866 2872 2876 2881 2886 2891 2896 2900 2903 2905 2908 2909 2910 2910 2911 2911 2910 2908
2749 2751 2756 2756 2761 2772 2776 2783 2789 2795 2800 2806 2810 2812 2814 2815 2815 2810 2803 2802 2802 2804 2807 2807 2808 2812 2814 2817 2820 2826 2835 2841 2846 2850 2852 2857 2863 2869 2874 2878 2882 2887 2891 2896 2899 2901 2903 2904 2905 2905 2905 2905 2904 2902
2744 2745 2749 2754 2761 2768 2776 2782 2787 2791 2795 2799 2801 2805 2808 2808 2805 2801 2799 2797 2795 2795 2798 2801 2802 2803 2805 2806 2811 2819 2829 2836 2839 2846 2850 2856 2861 2866 2872 2877 2880 2883 2887 2891 2893 2895 2897 2899 2900 2899 2899 2898 2897 2895
2742 2745 2749 2756 2761 2767 2772 2777 2782 2785 2788 2791 2795 2797 2800 2798 2797 2797 2795 2794 2792 2792 2793 2794 2795 2796 2798 2803 2807 2815 2823 2828 2833 2841 2846 2852 2856 2861 2865 2869 2874 2878 2881 2884 2888 2891 2892 2894 2895 2894 2893 2892 2891 2889
2742 2746 2750 2754 2758 2764 2768 2772 2775 2778 2781 2786 2789 2791 2792 2792 2793 2794 2793 2790 2788 2788 2787 2787 2787 2788 2795 2798 2804 2811 2817 2823 2829 2835 2841 2846 2849 2855 2862 2866 2870 2873 2877 2881 2884 2886 2888 2889 2889 2888 2887 2886 2885 2884
2743 2746 2750 2754 2757 2759 2762 2766 2771 2775 2778 2780 2784 2785 2787 2789 2790 2790 2789 2788 2786 2785 2784 2782 2781 2784 2789 2794 2800 2806 2814 2822 2828 2835 2840 2845 2850 2854 2858 2862 2866 2870 2874 2877 2880 2882 2883 2883 2883 2882 2882 2881 2880 2879
2742 2745 2748 2751 2754 2757 2760 2764 2767 2770 2774 2777 2779 2782 2784 2786 2786 2785 2785 2783 2782 2782 2781 2779 2779 2782 2787 2793 2799 2806 2812 2817 2824 2831 2836 2841 2846 2849 2854 2859 2865 2868 2871 2874 2876 2877 2878 2877 2877 2877 2877 2876 2876 2874
2738 2741 2745 2748 2751 2754 2758 2762 2764 2768 2771 2773 2776 2778 2779 2780 2781 2781 2781 2780 2779 2779 2780 2779 2780 2784 2790 2797 2803 2809 2815 2819 2824 2829 2834 2839 2843 2847 2853 2858 2862 2865 2868 2870 2872 2872 2872 2872 2872 2872 2872 2872 2871 2870
2737 2739 2742 2746 2748 2751 2755 2759 2761 2764 2767 2769 2770 2772 2773 2776 2777 2778 2777 2776 2777 2777 2778 2779 2780 2786 2793 2798 2804 2809 2815 2820 2824 2828 2833 2837 2842 2848 2853 2856 2859 2862 2865 2866 2867 2867 2868 2868 2869 2868 2868 2868 2867 2866